Regional Weather Roundup
Issued by NWS Newport/Morehead, NC

Current Version | Previous Version | Graphics & Text | Print | Product List | Glossary On
Versions: 1 2 3 4 5 6 7 8 9 10 11 12 13 14 15 16 17 18 19 20 21 22 23 24 25 26 27 28 29 30 31 32 33 34 35 36 37 38 39 40 41 42 43 44 45 46 47 48 49 50
000
ASUS42 KMHX 310822
RWRMHX
WEATHER ROUNDUP FOR EASTERN NORTH CAROLINA
NATIONAL WEATHER SERVICE NEWPORT/MOREHEAD CITY NC
400 AM EDT FRI OCT 31 2014

NOTE: "FAIR" INDICATES FEW OR NO CLOUDS BELOW 12,000 FEET
WITH NO SIGNIFICANT WEATHER AND/OR OBSTRUCTIONS TO VISIBILITY

NCZ015>017-031-032-045>047-102-103-310900-
NORTH COAST

CITY           SKY/WX    TMP DP  RH WIND       PRES   REMARKS
EDENTON        CLEAR     47  43  86 N5        29.94F
ELIZABETH CITY PTCLDY    53  45  74 N7        29.94F
KITTY HAWK     MOSUNNY   59  45  59 N9        29.90F
MANTEO         PTCLDY    58  47  64 N13       29.92S

$$

NCZ045>047-081-094-103-104-310900-
CENTRAL COAST

CITY           SKY/WX    TMP DP  RH WIND       PRES   REMARKS
FRISCO         CLOUDY    60  51  72 NE9G23    29.88F
SWANQUARTER      N/A     54 N/A N/A VRB8      29.88S

$$

NCZ095-097-098-100-101-310900-
SOUTHERN COAST

CITY           SKY/WX    TMP DP  RH WIND       PRES   REMARKS
BEAUFORT       CLOUDY    58  50  75 NE13      29.89F
CEDAR ISLAND     N/A     61 N/A N/A N21       29.94S
JACKSONVILLE   PTCLDY    52  49  89 N8        29.91F
PINEY ISLAND   CLOUDY    62  48  60 N16       29.89F
WILMINGTON     MOCLDY    52  49  89 N9        29.91F


$$

NCZ011>013-027>030-043-044-078>080-089-090>093-098-310900-
COASTAL PLAIN

CITY           SKY/WX    TMP DP  RH WIND       PRES   REMARKS
AHOSKIE        NOT AVBL
CLINTON        MOCLDY    49  48  95 CALM      29.94F
ELIZABETHTOWN  PTCLDY    49  48  97 CALM      29.93S
GOLDSBORO      PTCLDY    49  48  97 N3        29.93F
GREENVILLE     MOCLDY    46  45  93 N3        29.97F
HAVELOCK       CLOUDY    56  49  77 N12       29.92F
KENANSVILLE    PTCLDY    48  46  93 NE3       29.94F
KINSTON        PTCLDY    47  46  96 CALM      29.95F
NEW BERN       PTCLDY    54  48  80 NE7       29.94S
RICHLANDS      PTCLDY    48  45  87 N6        29.92F
ROCKY MOUNT    CLEAR     45  43  93 N6        29.97F
WASHINGTON     PTCLDY    47  44  89 CALM      29.94F
WHITEVILLE     PTCLDY    51  48  89 CALM      29.91F

$$

AMZ130-135-150-152-154-156-158-170-250-252-270-ANZ085-086-088-633-658-670-310900-
MARINE OBSERVATIONS

STATION/POSITION TIME  TEMP    WIND        PRES    WAVE   SWELL
                       AIR SEA DIR/SP/G            HT/PER HT/PER
                 (UTC) (F)     (DEG/KT/KT) (MB)    (FT/S) (FT/S)
CHESAPEAKE LIGHT 0800   58      40/ 13/ 14 1014.6
64 E VA BEACH    0800   60 66   30/ 12/ 14 1013.1    2/ 6   2/ 6
DUCK             0800   61 66   20/ 15/ 18 1012.5
2 E DUCK         NOT AVBL
10 NE DUCK       0800      67                N/A     3/ 5
OREGON INLET     0800   60 67   20/ 12/ 16 1012.6
13E OREGON INLT  0800      69                N/A     4/ 4
HATTERAS CG      0800   62 67   20/ 16/ 21 1012.3
DIAMOND BUOY     0800   64      10/ 21/ 27 1010.8    6/ 6   2/12
17 S OCRACOKE    NOT AVBL
CAPE LOOKOUT     0800   61      20/ 15/ 18 1011.5
BEAUFORT LAB     0800   59 69   20/ 11/ 16 1011.4
30 SE NEW RIVER  0800   64 74   30/ 21/ 25 1010.2    5/ 5   2/ 9
5 SE WRIGHTSVLE  0800   60 71   60/ 19/ 23   N/A
225 S CAPE HAT   0724   75 78  190/ 12/ 14 1009.2    3/ 8   3/ 8
41 SE CHARLESTON 0800   70 77   20/ 16/ 17 1009.8    5/ 6   2/ 9

$$



USA.gov is the U.S. government's official web portal to all federal, state and local government web resources and services.